| time (UTC) | temp F | wind direction | speed MPH | gust MPH | rain 1hr in | rain 24hr in | rain mn in | humidity % | barometer mb |
| 20260502164007 | 53 | 13 | 14.0 | 18.0 | 0.00 | 0.02 | 0.02 | 47 | 1018.7 |
| 20260502163507 | 54 | 10 | 7.0 | 15.0 | 0.00 | 0.02 | 0.02 | 47 | 1018.6 |
| 20260502163010 | 54 | 348 | 7.0 | 16.0 | 0.00 | 0.02 | 0.02 | 47 | 1018.7 |
| 20260502162507 | 54 | 86 | 8.0 | 16.0 | 0.00 | 0.02 | 0.02 | 46 | 1018.6 |
| 20260502162006 | 54 | 33 | 11.0 | 16.0 | 0.00 | 0.02 | 0.02 | 46 | 1018.6 |
| 20260502161506 | 54 | 22 | 8.0 | 20.0 | 0.00 | 0.02 | 0.02 | 46 | 1018.6 |
| 20260502161005 | 55 | 39 | 11.0 | 19.0 | 0.00 | 0.02 | 0.02 | 45 | 1018.6 |
| 20260502160504 | 54 | 23 | 8.0 | 21.0 | 0.00 | 0.02 | 0.02 | 46 | 1018.7 |
| 20260502152054 | 54 | 37 | 12.0 | 23.0 | 0.00 | 0.02 | 0.02 | 47 | 1019.0 |
| 20260502151603 | 54 | 25 | 14.0 | 23.0 | 0.00 | 0.02 | 0.02 | 47 | 1019.2 |
| 20260502151055 | 54 | 38 | 14.0 | 24.0 | 0.00 | 0.02 | 0.02 | 45 | 1019.1 |
| 20260502150553 | 55 | 41 | 15.0 | 25.0 | 0.00 | 0.02 | 0.02 | 44 | 1019.1 |
| 20260502130548 | 55 | 63 | 13.0 | 24.0 | 0.00 | 0.02 | 0.02 | 43 | 1019.2 |
| 20260502123645 | 54 | 14 | 16.0 | 25.0 | 0.00 | 0.02 | 0.02 | 46 | 1019.5 |
| 20260502123044 | 55 | 18 | 11.0 | 24.0 | 0.00 | 0.02 | 0.02 | 46 | 1019.5 |
| 20260502122644 | 55 | 59 | 14.0 | 26.0 | 0.00 | 0.02 | 0.02 | 46 | 1019.4 |
| 20260502122042 | 55 | 27 | 15.0 | 26.0 | 0.00 | 0.02 | 0.02 | 46 | 1019.3 |
| 20260502121543 | 55 | 19 | 14.0 | 26.0 | 0.00 | 0.02 | 0.02 | 46 | 1019.3 |
| 20260502121045 | 55 | 54 | 12.0 | 26.0 | 0.00 | 0.02 | 0.02 | 46 | 1019.4 |
| 20260502120544 | 55 | 62 | 14.0 | 27.0 | 0.00 | 0.02 | 0.02 | 45 | 1019.4 |
| 20260502115541 | 56 | 15 | 19.0 | 26.0 | 0.00 | 0.02 | 0.02 | 46 | 1019.3 |
| 20260502115045 | 56 | 40 | 15.0 | 27.0 | 0.00 | 0.02 | 0.02 | 46 | 1019.3 |
| 20260502114544 | 55 | 42 | 13.0 | 31.0 | 0.00 | 0.02 | 0.02 | 47 | 1019.6 |
| 20260502114039 | 55 | 45 | 16.0 | 31.0 | 0.00 | 0.02 | 0.02 | 48 | 1019.8 |
| 20260502113538 | 54 | 14 | 16.0 | 26.0 | 0.00 | 0.02 | 0.02 | 49 | 1019.6 |
| 20260502113038 | 55 | 27 | 15.0 | 26.0 | 0.00 | 0.02 | 0.02 | 49 | 1019.6 |
| 20260502112539 | 55 | 20 | 14.0 | 23.0 | 0.00 | 0.02 | 0.02 | 49 | 1019.5 |
| 20260502112037 | 56 | 46 | 13.0 | 24.0 | 0.00 | 0.02 | 0.02 | 49 | 1019.5 |
| 20260502111536 | 55 | 10 | 10.0 | 24.0 | 0.00 | 0.02 | 0.02 | 52 | 1019.5 |
| 20260502111036 | 55 | 55 | 10.0 | 21.0 | 0.00 | 0.02 | 0.02 | 52 | 1019.6 |
| 20260502110536 | 54 | 355 | 13.0 | 22.0 | 0.00 | 0.02 | 0.02 | 54 | 1019.8 |
| 20260502110039 | 53 | 84 | 15.0 | 26.0 | 0.00 | 0.02 | 0.02 | 56 | 1019.9 |
| 20260502105535 | 53 | 21 | 13.0 | 26.0 | 0.00 | 0.02 | 0.02 | 56 | 1020.0 |
| 20260502105036 | 53 | 85 | 13.0 | 25.0 | 0.00 | 0.02 | 0.02 | 56 | 1019.9 |
| 20260502104537 | 54 | 49 | 11.0 | 28.0 | 0.00 | 0.02 | 0.02 | 55 | 1020.0 |
| 20260502104035 | 54 | 43 | 13.0 | 28.0 | 0.00 | 0.02 | 0.02 | 55 | 1020.0 |
| 20260502103538 | 55 | 73 | 14.0 | 24.0 | 0.00 | 0.02 | 0.02 | 55 | 1020.0 |
| 20260502103034 | 54 | 62 | 12.0 | 21.0 | 0.00 | 0.02 | 0.02 | 56 | 1020.0 |
| 20260502102534 | 54 | 28 | 12.0 | 23.0 | 0.00 | 0.02 | 0.02 | 56 | 1020.1 |
| 20260502102034 | 54 | 58 | 14.0 | 24.0 | 0.00 | 0.02 | 0.02 | 56 | 1020.2 |
| 20260502101538 | 54 | 80 | 14.0 | 26.0 | 0.00 | 0.02 | 0.02 | 56 | 1020.0 |
| 20260502101033 | 54 | 33 | 17.0 | 26.0 | 0.00 | 0.02 | 0.02 | 57 | 1020.1 |
| 20260502100533 | 54 | 58 | 11.0 | 19.0 | 0.00 | 0.02 | 0.02 | 61 | 1020.1 |
| 20260502091528 | 53 | 347 | 9.0 | 16.0 | 0.00 | 0.02 | 0.02 | 61 | 1020.0 |
| 20260502091028 | 52 | 23 | 9.0 | 16.0 | 0.00 | 0.02 | 0.02 | 63 | 1020.0 |
| 20260502090526 | 52 | 19 | 10.0 | 17.0 | 0.00 | 0.02 | 0.02 | 63 | 1020.1 |
| 20260502071520 | 52 | 74 | 18.0 | 30.0 | 0.00 | 0.02 | 0.02 | 60 | 1019.8 |
| 20260502071019 | 53 | 61 | 15.0 | 32.0 | 0.00 | 0.02 | 0.02 | 60 | 1019.9 |
| 20260502070518 | 53 | 59 | 17.0 | 32.0 | 0.00 | 0.02 | 0.02 | 60 | 1019.9 |
| 20260502070018 | 53 | 34 | 15.0 | 25.0 | 0.00 | 0.02 | 0.02 | 59 | 1019.7 |
| 20260502065518 | 53 | 85 | 10.0 | 25.0 | 0.00 | 0.02 | 0.02 | 59 | 1019.7 |
| 20260502065017 | 53 | 31 | 13.0 | 24.0 | 0.00 | 0.02 | 0.02 | 60 | 1019.6 |
| 20260502064536 | 52 | 23 | 9.0 | 27.0 | 0.00 | 0.02 | 0.02 | 61 | 1019.7 |
| 20260502064018 | 52 | 70 | 13.0 | 27.0 | 0.00 | 0.02 | 0.02 | 61 | 1019.7 |
| 20260502063516 | 52 | 42 | 14.0 | 27.0 | 0.00 | 0.02 | 0.02 | 61 | 1019.7 |
| 20260502063018 | 53 | 26 | 11.0 | 25.0 | 0.00 | 0.02 | 0.02 | 61 | 1019.7 |
| 20260502062517 | 53 | 43 | 15.0 | 26.0 | 0.00 | 0.02 | 0.02 | 61 | 1019.7 |
| 20260502062017 | 53 | 47 | 13.0 | 26.0 | 0.00 | 0.02 | 0.02 | 61 | 1019.6 |
| 20260502061514 | 53 | 22 | 15.0 | 31.0 | 0.00 | 0.02 | 0.02 | 60 | 1019.7 |
| 20260502061014 | 54 | 62 | 19.0 | 31.0 | 0.01 | 0.02 | 0.02 | 59 | 1019.5 |
| 20260502060513 | 54 | 41 | 15.0 | 27.0 | 0.01 | 0.02 | 0.02 | 60 | 1019.5 |
| 20260502060014 | 53 | 82 | 12.0 | 25.0 | 0.01 | 0.02 | 0.02 | 61 | 1019.7 |
| 20260502055511 | 53 | 360 | 18.0 | 25.0 | 0.01 | 0.02 | 0.02 | 60 | 1019.6 |
| 20260502055009 | 53 | 41 | 15.0 | 25.0 | 0.01 | 0.02 | 0.02 | 62 | 1019.6 |
| 20260502054508 | 53 | 88 | 5.0 | 21.0 | 0.01 | 0.02 | 0.02 | 64 | 1019.5 |
| 20260502054007 | 52 | 29 | 11.0 | 21.0 | 0.01 | 0.02 | 0.02 | 65 | 1019.6 |
| 20260502053506 | 52 | 61 | 9.0 | 21.0 | 0.01 | 0.02 | 0.02 | 66 | 1019.6 |
| 20260502053005 | 51 | 31 | 13.0 | 23.0 | 0.01 | 0.02 | 0.02 | 66 | 1019.7 |
| 20260502052507 | 51 | 58 | 12.0 | 23.0 | 0.01 | 0.02 | 0.02 | 66 | 1019.7 |
| 20260502052003 | 51 | 61 | 13.0 | 25.0 | 0.01 | 0.02 | 0.02 | 67 | 1019.7 |
| 20260502051504 | 51 | 52 | 9.0 | 22.0 | 0.00 | 0.01 | 0.01 | 67 | 1019.7 |
| 20260502051002 | 51 | 65 | 11.0 | 21.0 | 0.00 | 0.01 | 0.01 | 67 | 1019.6 |
| 20260502050502 | 51 | 50 | 13.0 | 21.0 | 0.00 | 0.01 | 0.01 | 67 | 1019.7 |
| 20260502050001 | 51 | 63 | 12.0 | 24.0 | 0.00 | 0.01 | 0.01 | 68 | 1019.7 |
| 20260502045501 | 51 | 58 | 12.0 | 24.0 | 0.00 | 0.01 | 0.01 | 69 | 1019.7 |
| 20260502045058 | 51 | 19 | 10.0 | 22.0 | 0.00 | 0.01 | 0.01 | 69 | 1019.8 |
| 20260502044559 | 51 | 59 | 8.0 | 25.0 | 0.00 | 0.01 | 0.01 | 70 | 1019.8 |
| 20260502044100 | 51 | 26 | 10.0 | 25.0 | 0.00 | 0.01 | 0.01 | 70 | 1019.8 |
| 20260502043556 | 51 | 48 | 11.0 | 22.0 | 0.00 | 0.01 | 0.01 | 70 | 1019.8 |
| 20260502043056 | 51 | 61 | 11.0 | 20.0 | 0.00 | 0.01 | 0.01 | 71 | 1019.8 |
| 20260502042554 | 51 | 61 | 9.0 | 18.0 | 0.00 | 0.01 | 0.01 | 71 | 1019.7 |
| 20260502042053 | 51 | 59 | 11.0 | 20.0 | 0.00 | 0.01 | 0.01 | 71 | 1019.8 |
| 20260502041553 | 50 | 49 | 7.0 | 19.0 | 0.01 | 0.01 | 0.01 | 72 | 1019.8 |
| 20260502041052 | 50 | 78 | 9.0 | 19.0 | 0.01 | 0.01 | 0.01 | 73 | 1019.9 |
| 20260502040551 | 50 | 58 | 8.0 | 19.0 | 0.01 | 0.01 | 0.01 | 73 | 1019.8 |
| 20260502040103 | 50 | 32 | 8.0 | 17.0 | 0.01 | 0.01 | 0.01 | 74 | 1019.8 |
| 20260502035550 | 50 | 40 | 9.0 | 17.0 | 0.01 | 0.02 | 0.01 | 74 | 1019.8 |
| 20260502035051 | 50 | 56 | 9.0 | 18.0 | 0.01 | 0.02 | 0.01 | 74 | 1019.8 |
| 20260502034554 | 50 | 27 | 8.0 | 19.0 | 0.01 | 0.02 | 0.01 | 74 | 1019.8 |
| 20260502034051 | 50 | 84 | 10.0 | 19.0 | 0.01 | 0.02 | 0.01 | 75 | 1019.7 |
| 20260502033548 | 50 | 26 | 7.0 | 19.0 | 0.01 | 0.02 | 0.01 | 76 | 1019.6 |
| 20260502033048 | 50 | 38 | 9.0 | 19.0 | 0.01 | 0.02 | 0.01 | 77 | 1019.5 |
| 20260502032546 | 50 | 36 | 10.0 | 17.0 | 0.01 | 0.02 | 0.01 | 75 | 1019.6 |
| 20260502032045 | 51 | 42 | 6.0 | 16.0 | 0.01 | 0.02 | 0.01 | 74 | 1019.5 |
| 20260502031549 | 51 | 69 | 8.0 | 18.0 | 0.00 | 0.01 | 0.00 | 74 | 1019.5 |
| 20260502031044 | 51 | 36 | 7.0 | 18.0 | 0.00 | 0.01 | 0.00 | 73 | 1019.5 |
| 20260502030544 | 51 | 68 | 9.0 | 16.0 | 0.00 | 0.01 | 0.00 | 72 | 1019.5 |
| 20260502030043 | 51 | 15 | 10.0 | 16.0 | 0.00 | 0.01 | 0.00 | 72 | 1019.5 |
| 20260502025544 | 51 | 44 | 7.0 | 15.0 | 0.00 | 0.01 | 0.00 | 72 | 1019.6 |
| 20260502025042 | 51 | 49 | 7.0 | 18.0 | 0.00 | 0.01 | 0.00 | 72 | 1019.7 |
| 20260502024544 | 51 | 32 | 9.0 | 18.0 | 0.00 | 0.01 | 0.00 | 71 | 1019.7 |
| 20260502024041 | 51 | 37 | 9.0 | 16.0 | 0.00 | 0.01 | 0.00 | 70 | 1019.6 |
| 20260502023543 | 51 | 46 | 6.0 | 18.0 | 0.00 | 0.01 | 0.00 | 70 | 1019.6 |
| 20260502023049 | 51 | 29 | 11.0 | 19.0 | 0.00 | 0.01 | 0.00 | 69 | 1019.7 |
| 20260502022539 | 51 | 28 | 10.0 | 19.0 | 0.00 | 0.01 | 0.00 | 70 | 1019.6 |
| 20260502022039 | 51 | 61 | 8.0 | 19.0 | 0.00 | 0.01 | 0.00 | 70 | 1019.6 |
| 20260502021538 | 51 | 40 | 10.0 | 16.0 | 0.00 | 0.01 | 0.00 | 70 | 1019.6 |
| 20260502021037 | 51 | 44 | 3.0 | 12.0 | 0.00 | 0.01 | 0.00 | 70 | 1019.6 |
| 20260502020537 | 51 | 57 | 6.0 | 15.0 | 0.00 | 0.01 | 0.00 | 70 | 1019.6 |
| 20260502020044 | 51 | 71 | 5.0 | 14.0 | 0.00 | 0.01 | 0.00 | 70 | 1019.7 |
| 20260502015537 | 51 | 67 | 7.0 | 14.0 | 0.00 | 0.01 | 0.00 | 70 | 1019.6 |
| 20260502015036 | 51 | 20 | 7.0 | 14.0 | 0.00 | 0.01 | 0.00 | 71 | 1019.7 |
| 20260502014547 | 51 | 27 | 7.0 | 13.0 | 0.00 | 0.01 | 0.00 | 71 | 1019.7 |
| 20260502014035 | 51 | 75 | 7.0 | 14.0 | 0.00 | 0.01 | 0.00 | 72 | 1019.7 |
| 20260502013536 | 51 | 34 | 4.0 | 11.0 | 0.00 | 0.01 | 0.00 | 72 | 1019.8 |
| 20260502013034 | 51 | 41 | 5.0 | 14.0 | 0.00 | 0.01 | 0.00 | 72 | 1019.7 |
| 20260502012534 | 51 | 71 | 7.0 | 14.0 | 0.00 | 0.01 | 0.00 | 72 | 1019.7 |
| 20260502012036 | 51 | 48 | 7.0 | 16.0 | 0.00 | 0.01 | 0.00 | 72 | 1019.7 |
| 20260502011534 | 51 | 57 | 9.0 | 16.0 | 0.00 | 0.01 | 0.00 | 72 | 1019.7 |
| 20260502011035 | 51 | 72 | 6.0 | 15.0 | 0.00 | 0.01 | 0.00 | 72 | 1019.8 |
| 20260502010532 | 51 | 55 | 6.0 | 17.0 | 0.00 | 0.01 | 0.00 | 72 | 1019.8 |
| 20260502010034 | 51 | 49 | 6.0 | 17.0 | 0.00 | 0.01 | 0.00 | 72 | 1019.9 |
| 20260502005531 | 51 | 44 | 8.0 | 16.0 | 0.00 | 0.01 | 0.00 | 72 | 1019.7 |
| 20260502005033 | 51 | 44 | 7.0 | 15.0 | 0.00 | 0.01 | 0.00 | 71 | 1019.7 |
| 20260502004534 | 51 | 94 | 5.0 | 15.0 | 0.00 | 0.01 | 0.00 | 71 | 1019.8 |
| 20260502004029 | 51 | 57 | 8.0 | 18.0 | 0.00 | 0.01 | 0.00 | 70 | 1019.8 |
| 20260502003531 | 51 | 22 | 9.0 | 21.0 | 0.00 | 0.01 | 0.00 | 69 | 1019.7 |
| 20260502003028 | 51 | 44 | 7.0 | 16.0 | 0.00 | 0.01 | 0.00 | 69 | 1019.7 |
| 20260502002528 | 51 | 34 | 6.0 | 16.0 | 0.00 | 0.01 | 0.00 | 69 | 1019.9 |
| 20260502002028 | 51 | 67 | 7.0 | 20.0 | 0.00 | 0.01 | 0.00 | 69 | 1019.9 |
| 20260502001540 | 52 | 55 | 10.0 | 19.0 | 0.00 | 0.01 | 0.00 | 70 | 1020.0 |
| 20260502001026 | 52 | 36 | 10.0 | 19.0 | 0.00 | 0.01 | 0.00 | 71 | 1020.0 |
| 20260502000525 | 52 | 23 | 6.0 | 16.0 | 0.00 | 0.01 | 0.00 | 71 | 1020.1 |
| 20260502000025 | 52 | 360 | 10.0 | 23.0 | 0.00 | 0.02 | 0.00 | 70 | 1020.1 |
| 20260501235525 | 52 | 55 | 13.0 | 21.0 | 0.00 | 0.02 | 0.00 | 70 | 1020.1 |
| 20260501235023 | 52 | 61 | 8.0 | 18.0 | 0.00 | 0.02 | 0.00 | 70 | 1020.1 |
| 20260501234523 | 52 | 61 | 7.0 | 16.0 | 0.00 | 0.02 | 0.00 | 70 | 1020.2 |
| 20260501234022 | 52 | 37 | 9.0 | 16.0 | 0.00 | 0.02 | 0.00 | 70 | 1020.3 |
| 20260501233523 | 52 | 63 | 8.0 | 19.0 | 0.00 | 0.02 | 0.00 | 70 | 1020.3 |
| 20260501233021 | 52 | 42 | 9.0 | 19.0 | 0.00 | 0.02 | 0.00 | 70 | 1020.3 |
| 20260501232523 | 52 | 59 | 10.0 | 18.0 | 0.00 | 0.02 | 0.00 | 71 | 1020.3 |
| 20260501232020 | 52 | 24 | 9.0 | 18.0 | 0.00 | 0.02 | 0.00 | 71 | 1020.4 |
| 20260501231523 | 52 | 41 | 8.0 | 20.0 | 0.00 | 0.02 | 0.00 | 71 | 1020.3 |
| 20260501231019 | 52 | 30 | 11.0 | 23.0 | 0.00 | 0.02 | 0.00 | 71 | 1020.3 |
| 20260501230522 | 52 | 42 | 11.0 | 18.0 | 0.00 | 0.02 | 0.00 | 72 | 1020.4 |
| 20260501230021 | 52 | 34 | 6.0 | 17.0 | 0.00 | 0.02 | 0.00 | 72 | 1020.4 |
| 20260501225517 | 52 | 64 | 7.0 | 17.0 | 0.00 | 0.02 | 0.00 | 72 | 1020.4 |
| 20260501225014 | 52 | 52 | 7.0 | 16.0 | 0.00 | 0.02 | 0.00 | 72 | 1020.6 |
| 20260501224515 | 52 | 30 | 8.0 | 16.0 | 0.00 | 0.02 | 0.00 | 72 | 1020.7 |
| 20260501224017 | 52 | 65 | 5.0 | 17.0 | 0.00 | 0.02 | 0.00 | 71 | 1020.7 |
| 20260501223513 | 52 | 42 | 8.0 | 19.0 | 0.00 | 0.02 | 0.00 | 71 | 1020.7 |
| 20260501223017 | 52 | 38 | 12.0 | 19.0 | 0.00 | 0.02 | 0.00 | 71 | 1020.8 |
| 20260501222512 | 52 | 35 | 9.0 | 20.0 | 0.00 | 0.02 | 0.00 | 71 | 1020.8 |
| 20260501222009 | 52 | 43 | 12.0 | 20.0 | 0.00 | 0.02 | 0.00 | 71 | 1021.0 |
| 20260501221509 | 52 | 46 | 4.0 | 12.0 | 0.00 | 0.02 | 0.00 | 72 | 1021.1 |
| 20260501221009 | 52 | 36 | 7.0 | 15.0 | 0.00 | 0.02 | 0.00 | 72 | 1021.0 |
| 20260501220509 | 52 | 10 | 6.0 | 15.0 | 0.00 | 0.02 | 0.00 | 72 | 1021.1 |
| 20260501220009 | 52 | 26 | 6.0 | 18.0 | 0.00 | 0.02 | 0.00 | 71 | 1021.1 |
| 20260501215509 | 52 | 94 | 4.0 | 21.0 | 0.00 | 0.02 | 0.00 | 71 | 1021.0 |
| 20260501215008 | 52 | 76 | 8.0 | 16.0 | 0.00 | 0.02 | 0.00 | 72 | 1021.0 |
| 20260501214508 | 52 | 74 | 8.0 | 19.0 | 0.00 | 0.02 | 0.00 | 72 | 1020.9 |
| 20260501214006 | 52 | 51 | 10.0 | 22.0 | 0.00 | 0.02 | 0.00 | 72 | 1021.0 |
| 20260501213509 | 52 | 54 | 12.0 | 24.0 | 0.00 | 0.02 | 0.00 | 71 | 1021.1 |
| 20260501213006 | 52 | 44 | 8.0 | 24.0 | 0.00 | 0.02 | 0.00 | 71 | 1021.2 |
| 20260501212504 | 52 | 46 | 10.0 | 18.0 | 0.00 | 0.02 | 0.00 | 71 | 1021.2 |
| 20260501212003 | 52 | 63 | 8.0 | 21.0 | 0.00 | 0.02 | 0.00 | 72 | 1021.1 |
| 20260501211503 | 52 | 62 | 5.0 | 18.0 | 0.00 | 0.02 | 0.00 | 71 | 1021.1 |
| 20260501211004 | 52 | 54 | 9.0 | 16.0 | 0.00 | 0.02 | 0.00 | 71 | 1021.2 |
| 20260501210559 | 52 | 26 | 6.0 | 14.0 | 0.00 | 0.02 | 0.00 | 71 | 1021.2 |
| 20260501205559 | 53 | 26 | 7.0 | 17.0 | 0.00 | 0.02 | 0.02 | 70 | 1021.4 |
| 20260501205058 | 53 | 55 | 9.0 | 17.0 | 0.00 | 0.02 | 0.02 | 71 | 1021.3 |
| 20260501204557 | 53 | 97 | 6.0 | 17.0 | 0.00 | 0.02 | 0.02 | 71 | 1021.3 |
| 20260501204100 | 53 | 39 | 9.0 | 17.0 | 0.00 | 0.02 | 0.02 | 71 | 1021.1 |
| 20260501203556 | 53 | 48 | 7.0 | 19.0 | 0.00 | 0.02 | 0.02 | 71 | 1021.0 |
| 20260501203058 | 53 | 94 | 10.0 | 19.0 | 0.00 | 0.02 | 0.02 | 71 | 1021.0 |
| 20260501202555 | 53 | 43 | 10.0 | 19.0 | 0.00 | 0.02 | 0.02 | 71 | 1021.1 |
| 20260501202055 | 53 | 34 | 10.0 | 21.0 | 0.00 | 0.02 | 0.02 | 71 | 1021.0 |
| 20260501201555 | 53 | 101 | 12.0 | 21.0 | 0.00 | 0.02 | 0.02 | 71 | 1021.0 |
| 20260501201054 | 53 | 10 | 8.0 | 23.0 | 0.00 | 0.02 | 0.02 | 71 | 1020.9 |
| 20260501200556 | 53 | 52 | 12.0 | 23.0 | 0.00 | 0.02 | 0.02 | 71 | 1021.0 |
| 20260501200054 | 53 | 100 | 12.0 | 23.0 | 0.00 | 0.02 | 0.02 | 71 | 1021.0 |
| 20260501195556 | 53 | 119 | 10.0 | 24.0 | 0.00 | 0.02 | 0.02 | 70 | 1021.0 |
| 20260501195057 | 53 | 84 | 8.0 | 24.0 | 0.00 | 0.02 | 0.02 | 70 | 1021.0 |
| 20260501194554 | 53 | 63 | 12.0 | 19.0 | 0.00 | 0.02 | 0.02 | 71 | 1021.1 |
| 20260501194053 | 53 | 61 | 8.0 | 17.0 | 0.00 | 0.02 | 0.02 | 71 | 1021.1 |
| 20260501193553 | 53 | 51 | 8.0 | 18.0 | 0.00 | 0.02 | 0.02 | 71 | 1021.1 |
| 20260501193052 | 53 | 98 | 9.0 | 21.0 | 0.00 | 0.02 | 0.02 | 72 | 1021.0 |
| 20260501192552 | 53 | 53 | 12.0 | 23.0 | 0.00 | 0.02 | 0.02 | 71 | 1020.9 |
| 20260501192055 | 53 | 84 | 11.0 | 23.0 | 0.00 | 0.02 | 0.02 | 71 | 1021.0 |
| 20260501191550 | 53 | 13 | 13.0 | 24.0 | 0.00 | 0.02 | 0.02 | 71 | 1020.8 |
| 20260501191050 | 53 | 51 | 17.0 | 25.0 | 0.00 | 0.02 | 0.02 | 71 | 1020.6 |
| 20260501190549 | 53 | 344 | 12.0 | 25.0 | 0.00 | 0.02 | 0.02 | 71 | 1020.7 |
| 20260501190058 | 53 | 62 | 13.0 | 22.0 | 0.00 | 0.02 | 0.02 | 71 | 1020.6 |
| 20260501185549 | 53 | 55 | 13.0 | 23.0 | 0.00 | 0.02 | 0.02 | 71 | 1020.7 |
| 20260501185053 | 53 | 43 | 14.0 | 25.0 | 0.00 | 0.02 | 0.02 | 71 | 1020.8 |
| 20260501184549 | 53 | 63 | 12.0 | 25.0 | 0.00 | 0.02 | 0.02 | 72 | 1020.7 |
| 20260501184049 | 53 | 49 | 10.0 | 20.0 | 0.00 | 0.02 | 0.02 | 72 | 1020.8 |
| 20260501183549 | 53 | 69 | 12.0 | 24.0 | 0.00 | 0.02 | 0.02 | 72 | 1020.8 |
| 20260501183048 | 53 | 51 | 12.0 | 26.0 | 0.00 | 0.02 | 0.02 | 71 | 1020.6 |
| 20260501182548 | 53 | 58 | 14.0 | 26.0 | 0.00 | 0.02 | 0.02 | 71 | 1020.5 |
| 20260501182048 | 53 | 10 | 13.0 | 24.0 | 0.00 | 0.02 | 0.02 | 71 | 1020.5 |
| 20260501181547 | 53 | 69 | 13.0 | 24.0 | 0.00 | 0.02 | 0.02 | 71 | 1020.5 |
| 20260501181050 | 53 | 76 | 7.0 | 20.0 | 0.00 | 0.02 | 0.02 | 72 | 1020.5 |
| 20260501180546 | 53 | 57 | 12.0 | 26.0 | 0.00 | 0.02 | 0.02 | 72 | 1020.6 |
| 20260501180047 | 53 | 28 | 12.0 | 26.0 | 0.00 | 0.02 | 0.02 | 72 | 1020.5 |
| 20260501175548 | 53 | 40 | 10.0 | 18.0 | 0.00 | 0.02 | 0.02 | 72 | 1020.4 |
| 20260501175045 | 53 | 55 | 8.0 | 20.0 | 0.00 | 0.02 | 0.02 | 73 | 1020.4 |
| 20260501174546 | 53 | 54 | 13.0 | 20.0 | 0.00 | 0.02 | 0.02 | 72 | 1020.3 |
| 20260501174045 | 53 | 96 | 8.0 | 21.0 | 0.00 | 0.02 | 0.02 | 72 | 1020.3 |
| 20260501173548 | 53 | 55 | 10.0 | 21.0 | 0.00 | 0.02 | 0.02 | 72 | 1020.3 |
| 20260501173045 | 53 | 49 | 10.0 | 22.0 | 0.00 | 0.02 | 0.02 | 71 | 1020.4 |
| 20260501172547 | 53 | 84 | 10.0 | 22.0 | 0.00 | 0.02 | 0.02 | 71 | 1020.4 |
| 20260501171642 | 53 | 23 | 8.0 | 19.0 | 0.00 | 0.02 | 0.02 | 71 | 1020.5 |
| 20260501171042 | 53 | 30 | 7.0 | 25.0 | 0.00 | 0.02 | 0.02 | 71 | 1020.4 |
| 20260501170542 | 53 | 35 | 11.0 | 25.0 | 0.00 | 0.02 | 0.02 | 71 | 1020.2 |
| 20260501170042 | 53 | 77 | 6.0 | 21.0 | 0.00 | 0.02 | 0.02 | 71 | 1020.2 |
| 20260501165541 | 53 | 57 | 9.0 | 21.0 | 0.00 | 0.02 | 0.02 | 71 | 1020.3 |
| 20260501165042 | 53 | 82 | 11.0 | 26.0 | 0.00 | 0.02 | 0.02 | 71 | 1020.1 |
| 20260501164541 | 53 | 36 | 12.0 | 26.0 | 0.00 | 0.02 | 0.02 | 71 | 1019.9 |